Regional Weather Roundup
Issued by NWS

Home | Current Version | Previous Version | Graphics & Text | Print | Product List | Glossary On
Versions: 1 2 3 4 5 6 7 8 9 10 11 12 13 14 15 16 17 18 19 20 21 22 23 24 25 26 27 28 29 30 31 32 33 34 35 36 37 38 39 40 41 42 43 44 45 46 47 48 49 50
000
ASUS44 KMEG 310610
RWRTN
TENNESSEE HOURLY STATE WEATHER ROUNDUP
NATIONAL WEATHER SERVICE MEMPHIS TN
100 AM CDT TUE MAY 31 2016

TNZ002-004-019-021-049-052-054-088>092-310700-
WEST TENNESSEE

CITY           SKY/WX    TMP DP  RH WIND       PRES   REMARKS
MEMPHIS INTL   CLOUDY    72  66  81 NW6       29.96F
NWS MEMPHIS      N/A     72 N/A N/A MISG        N/A
JACKSON        MOCLDY    69  66  90 CALM      29.95F
DYERSBURG      CLOUDY    72  66  83 CALM      29.95S
UNION CITY     CLEAR     68  68 100 CALM      29.94F
PARIS          CLEAR     64  61  88 CALM      29.97S
LEXINGTON      CLEAR     66  64  94 CALM      29.95F
$$

TNZ008-025-027-028-033-062-065-066-310700-
NORTH MIDDLE TENNESSEE

CITY           SKY/WX    TMP DP  RH WIND       PRES   REMARKS
NASHVILLE      PTCLDY    68  60  75 S3        29.96F
CLARKSVILLE    CLOUDY    67  62  84 CALM      29.97S
SMYRNA         CLEAR     65  63  93 CALM      29.97F
COOKEVILLE     CLEAR     61  59  94 CALM      29.98F
CROSSVILLE     CLEAR     63  58  83 CALM      30.03F
$$

TNZ061-075-076-078-094-096-097-310700-
SOUTH MIDDLE TENNESSEE

CITY           SKY/WX    TMP DP  RH WIND       PRES   REMARKS
FAYETTEVILLE   CLEAR     70  59  68 NE6       29.97F
TULLAHOMA      CLEAR     63  63 100 CALM      29.99F
WINCHESTER     CLEAR     61  59  94 CALM      29.98F
MCMINNVILLE    CLEAR     63  63 100 CALM      29.98F
COLUMBIA       CLEAR    N/A N/A N/A CALM      29.96F
SHELBYVILLE    CLEAR     64  61  88 CALM      29.98F
$$

TNZ017-018-042-046-047-310700-
NORTHEAST TENNESSEE

CITY           SKY/WX    TMP DP  RH WIND       PRES   REMARKS
TRI CITIES     CLEAR     61  60  97 CALM      30.01S
$$

TNZ012-013-036-069-073-074-310700-
CENTRAL EAST TENNESSEE

CITY           SKY/WX    TMP DP  RH WIND       PRES   REMARKS
KNOXVILLE      PTCLDY    66  64  93 CALM      29.97F
OAK RIDGE      PTCLDY    68  63  84 CALM      29.99F
GATLINBURG     CLEAR     63  61  94 CALM      29.97F
$$

TNZ083-085-099-310700-
SOUTHEAST TENNESSEE

CITY           SKY/WX    TMP DP  RH WIND       PRES   REMARKS
CHATTANOOGA    CLEAR     70  62  76 CALM      29.95F
$$

SKY/WX REPORTED AS FAIR MEANS FEW OR NO CLOUDS BELOW
12 THOUSAND FEET.





USA.gov is the U.S. government's official web portal to all federal, state and local government web resources and services.